Location: Cormont
(50.5693°N, 1.7416°E)
Time: 08:15:21
(UTC+00:00)

STARLINK-53 - Pass Details

Date: 21 October 2019
Orbit: 550 x 552 km, 53.0° (Epoch: 21 November)

Event Time Altitude Azimuth Distance (km) Brightness Sun altitude
Rises 18:58:44 0° 284° (WNW) 2,725 8.7 -21.1°
Reaches altitude 10° 19:00:59 10° 287° (WNW) 1,830 7.4 -21.5°
Maximum altitude 19:05:08 68° 10° (N) 597 3.7 -22.2°
Enters shadow 19:05:19 67° 30° (NNE) 602 3.6 -22.2°
